Zurück zum Katalog

COSMOS 2230

AktivNavigationPO
NORAD 22307·PAYLOAD·🇷🇺 Russia

Gestartet Jan 12, 1993 von Plesetsk Cosmodrome

Loading…

Nächste Überflüge (nächste 24 Stunden)

TLE

AktuellSource: Space-Track

Epoche: Sep 14, 2026, 15:18 UTC

1 22307U 93001A   26257.63796736  .00000070  00000-0  58288-4 0  9998
2 22307  82.9402 222.3366 0023008 276.7011 256.8768 13.73899538679361

Verfolge COSMOS 2230 in Echtzeit mit AllMySat

Download on the App Store